Location: Ness County Health Department
(38.4534°N, 99.9071°W)
Time: 16:12:56
(UTC+00:00)

Daily predictions for brighter satellites

Satellite Brightness Start Highest point End
(mag) Time Altitude Azimuth Time Altitude Azimuth Time Altitude Azimuth
SJ-12 4.0 12:01:08 10° N 12:05:09 51° WNW 12:09:09 10° SSW
CBERS 1 LM4 rocket 4.3 12:01:01 10° N 12:05:58 75° WNW 12:11:07 10° SSW
SJ 16-02 1.2 12:02:28 10° SSW 12:06:49 71° WNW 12:11:12 10° NNE
SKYMED 3 4.4 12:04:36 10° S 12:08:56 72° W 12:12:17 17° NNW
CZ-4B R/B 4.5 12:05:59 10° NNE 12:09:15 32° E 12:12:34 10° SSE
USA 215 4.3 12:03:22 10° E 12:09:17 38° NNE 12:14:28 13° NNW
H-2A R/B 4.0 12:13:51 23° SW 12:13:51 23° SW 12:15:36 10° SW
Meteor 2-15 Rocket 4.4 12:07:30 10° N 12:13:37 87° E 12:19:40 10° S
DELTA 2 R/B (1) 3.5 12:12:08 30° W 12:14:57 81° N 12:20:31 10° E
Cosmos 1515 Rocket 3.4 12:10:59 11° N 12:15:06 74° W 12:19:24 10° S
Cosmos 2228 Rocket 4.4 12:16:21 10° N 12:20:39 42° E 12:24:57 10° SSE
Meteor 1-27 Rocket 3.7 12:15:15 10° N 12:20:58 89° W 12:26:48 10° S
Meteor 1-31 Rocket 3.1 12:19:51 10° N 12:23:33 41° WNW 12:27:14 10° SW
SL-27 R/B 2.8 12:27:43 27° NW 12:29:10 42° WSW 12:32:29 10° S
Cosmos 1500 Rocket 3.5 12:25:29 10° SSW 12:29:53 65° W 12:34:21 10° N
Sich 1 3.8 12:26:17 10° S 12:30:26 53° E 12:34:36 10° NNE
SL-4 R/B 1.5 12:28:17 17° WSW 12:30:52 73° NW 12:34:31 10° NE
BREEZE M DEB (TANK) 4.5 12:30:21 13° NNW 12:30:59 13° N 12:32:22 10° NNE
SKYMED 2 4.1 12:28:54 10° SSW 12:32:55 37° W 12:36:30 13° NNW
Cosmos 2297 Rocket 3.9 12:28:34 10° N 12:33:29 29° ENE 12:38:21 10° ESE
CZ-4B R/B 4.2 12:32:06 10° ESE 12:34:14 16° ENE 12:36:21 10° NNE
NOAA 12 4.5 12:29:23 10° NNE 12:34:38 68° ESE 12:39:49 10° S
Cosmos 1939 Rocket 3.7 12:32:08 10° NNE 12:35:57 52° E 12:39:42 10° S
Nadezhda 4 Rocket 4.1 12:30:25 10° SSW 12:36:24 54° W 12:42:31 10° N
Cosmos 1538 Rocket 4.1 12:34:31 10° NNW 12:39:45 83° ENE 12:44:55 10° SSE
CZ-2C R/B 3.2 12:35:20 10° SSW 12:40:22 38° W 12:45:20 10° NNW
Meteor 1-25 Rocket 4.2 12:34:57 10° S 12:40:35 88° W 12:46:11 10° N
ADEOS 3.6 12:36:10 10° N 12:41:17 58° WNW 12:46:23 10° SSW
H-2A R/B 2.9 12:37:47 10° SSE 12:41:56 52° ENE 12:46:12 10° N
Cosmos 1805 Rocket 3.5 12:38:06 10° S 12:42:28 83° W 12:46:51 10° N
Okean 1 4.5 12:38:41 10° N 12:42:29 44° E 12:46:15 10° SSE
H-2A R/B (2) 4.3 12:37:51 10° SW 12:43:01 45° SSE 13:13:32 10° E
BREEZE-M DEB 3.6 12:44:32 14° W 12:47:13 55° NNW 12:56:11 10° NE
Cosmos 1602 3.7 12:46:07 10° SSW 12:49:52 59° W 12:53:38 10° N
Cosmos 1428 Rocket 4.4 12:45:51 10° S 12:52:00 82° W 12:58:09 10° N
Cosmos 1092 Rocket 4.0 12:50:22 10° SSW 12:56:33 66° W 13:02:51 10° N
Meteor PRIRODA 4.0 12:55:37 10° N 12:59:03 41° WNW 13:02:29 10° SW
Cosmos 1500 3.1 12:57:04 10° SSW 13:00:50 71° W 13:04:38 10° N
Meteor 2-21 4.5 12:55:18 10° S 13:01:29 82° W 13:07:40 10° N
AQUARIUS 4.5 12:57:35 10° NNE 13:02:05 74° ESE 13:06:33 10° S
H-2A R/B 3.4 12:58:19 10° NNE 13:02:59 42° E 13:07:41 10° S
Cosmos 1656 3.6 12:57:45 10° SSW 13:03:10 89° WNW 13:08:39 10° NNE
IRAS Rocket 4.3 12:57:57 10° S 13:03:23 61° WSW 13:08:49 10° NNW
Cosmos 158 Rocket 4.1 13:00:38 10° NNW 13:05:43 58° WSW 13:10:55 10° S
Cosmos 1898 Rocket 3.8 13:01:44 10° S 13:07:02 75° ESE 13:12:22 10° NNE
USA 32 4.2 13:03:09 10° NNW 13:08:15 52° W 13:13:19 10° SSW
CZ-2C R/B 3.3 13:04:15 10° N 13:08:59 44° WNW 13:13:56 10° SW
Cosmos 2227 Rocket 3.4 13:04:32 10° N 13:09:50 40° ENE 13:15:07 10° SE
Okean O Rocket 4.1 13:09:54 10° NE 13:13:38 26° E 13:17:18 10° SSE
Cosmos 923 Rocket 4.3 13:09:28 10° NNW 13:14:50 73° ENE 13:20:10 10° SSE
FengYun 1-2 T 4.2 13:09:42 10° N 13:15:08 65° WNW 13:20:33 10° SSW
Meteor 2-4 Rocket 4.5 13:09:55 10° N 13:15:46 61° ENE 13:21:27 10° SSE
Cosmos 1515 4.5 13:12:32 10° NNW 13:15:55 31° W 13:19:18 10° SSW
PSLV R/B 4.1 13:12:28 10° NNE 13:16:29 78° ESE 13:20:32 10° S
Lacrosse 5 1.9 13:11:26 10° SW 13:16:32 82° NW 13:21:39 10° NE
Meteor 1-18 Rocket 4.4 13:12:35 10° N 13:18:25 89° ENE 13:24:06 10° S
NOSS 8 (F) 4.4 13:16:18 10° SSW 13:20:11 86° WNW 13:23:17 10° NNE
FALCON 9 R/B 4.2 13:06:30 10° WNW 13:24:35 42° SW 13:30:12 10° SSE
Lacrosse 5 rocket 2.6 23:44:09 10° NNW 23:47:10 20° NE 23:50:18 10° E
SL-08 R/B 4.2 23:43:20 10° N 23:47:51 51° WNW 23:52:17 10° SSW
GPS 2-04 Rocket1 4.5 23:44:13 10° W 23:47:54 33° SSW 23:51:37 10° SE
Cosmos 1428 Rocket 4.5 23:42:21 10° N 23:48:30 76° E 23:54:41 10° SSE
NOAA 12 4.2 23:47:46 10° SSE 23:53:05 89° ENE 23:58:25 10° NNW
Cosmos 1812 2.7 23:50:54 10° S 23:54:41 63° E 23:58:30 10° NNE
